STARLINK-34321, 64267

Orbit data source: Space-Track

STARLINK-34321, 64267 is a payload satellite owned by SpaceX/Seattle (US) in LEO that was launched on Wed, 04 Jun 2025 UTC via an FALCON 9 launch vehicle from the Air Force Western Test Range (AFWTR). Payload-class satellites include a variety of spacecraft equipped with specific instruments for various scientific and technological missions. These include communications satellites like Starlink; space stations such as the ISS; scientific satellites like the Hubble; Earth observation satellites from companies like Planet Labs, Umbra, and HawkEye 360; GPS; miniature CubeSats for education and research; and military/defense satellites.

Loading next visibility...
Identifier
64267, 2025-120M
Orbit
LEO
Country
Flag of USUS
Related business
Manufacturer
SpaceX/Seattle
Mission
Operational Commercial Communications
Bus & Motor
STARLINK V2MO, Unknown motor
Mass
575 kg wet, ~530 kg dry
Launch date (UTC)
2025-06-04 (1 year ago)
Launch vehicle
FALCON 9
Launch site
Air Force Western Test Range (AFWTR)
Object type
Payload
Rocket body
Debris
Shape & HBR
Box + 2 Pan, 17.7 m
Radar Cross Section
36.964 m², Large (>1 m²)

Expand to show TLE details & history
Last TLE update: 22 hours ago

TLE from 22 hours ago
0 STARLINK-34321
1 64267U 25120M   26170.92633725  .00022164  00000-0  66501-3 0  9994
2 64267  53.1594 358.6485 0000942  97.5480 262.5630 15.34407407 59611
Epoch: 2026-06-19T22:13Z
TLE epoch observation values (Epoch: 2026-06-19T22:13:55.538Z)
Latitude
0.00001°
Longitude
117.0188°
Altitude
463.666 km
Speed
7.636 km/s
True Right ascension
23h 54m 35s
True Declination
0° 00' 00"
Sunlit
Object was in daylight at epoch
Visualization orbit readout
Latitude
Unknown
Longitude
Unknown
Altitude
Unknown
Speed
Unknown
Apparent Right ascension
Unknown
Apparent Declination
Unknown
Sunlit
N/A
Visualization observer readout
Local Sidereal Time
07:14:25
Azimuth
Unknown
Elevation
Unknown
Doppler factor
Unknown
Orbital elements
Apogee altitude
463.583 km
Perigee altitude
462.294 km
Semi-major axis
6,841.075 km
Eccentricity
0.00009
Inclination
53.1594°
RAAN
358.6485°
Arg. of periapsis
97.548°
True anomaly
262.5523°
Mean anomaly
262.563°
Eccentric anomaly
262.55765°
Mean motion
3.83581 °/min
Orbital period
93.85 mins
BSTAR
0.00066501
Loading maneuver chart data...
Computing Atmospheric mass density...
Loading historical data...
Loading historical data...
Loading historical data...
Loading historical data...
Loading historical data...
Loading historical data...
Loading historical data...

Documentation

Showing up to 5 results
|